Location: Newark
(13.8625°N, 100.5144°E)
Time: 04:43:10
(UTC+00:00)

N. Korean satellite - Visible Passes

Search period start: 05 April 2020 00:00
Search period end: 15 April 2020 00:00
Orbit: 454 x 507 km, 97.2° (Epoch: 04 April)

Date Brightness Start Highest point End Pass type
(mag) Time Alt. Az. Time Alt. Az. Time Alt. Az.
05 Apr 7.8 22:29:40 10° NNE 22:32:56 42° E 22:36:12 10° S visible
06 Apr 9.6 22:05:09 10° ENE 22:07:20 16° E 22:09:31 10° SE visible
08 Apr 6.5 22:45:59 10° N 22:49:24 89° E 22:52:51 10° S visible
09 Apr 8.6 22:20:48 10° NE 22:23:50 30° E 22:26:53 10° SSE visible
10 Apr 9.8 21:56:57 10° ENE 21:58:12 12° E 21:59:30 10° ESE visible
12 Apr 7.1 22:36:54 10° NNE 22:40:17 60° E 22:43:44 10° S visible
13 Apr 9.2 22:11:59 10° NE 22:14:42 22° E 22:17:27 10° SSE visible
